Regional Weather Roundup
Issued by NWS Kansas City/Pleasant Hill, MO

Home | Current Version | Previous Version | Graphics & Text | Print | Product List | Glossary Off
Versions: 1 2 3 4 5 6 7 8 9 10 11 12 13 14 15 16 17 18 19 20 21 22 23 24 25 26 27

000
ASUS43 KEAX 301210
RWREAX

WEATHER ROUNDUP FOR EASTERN KANSAS AND NORTHWEST MISSOURI
NATIONAL WEATHER SERVICE KANSAS CITY/PLEASANT HILL MO
700 AM CDT TUE AUG 30 2016

KSZ040-057-103>105-MOZ028-029-037-043-301300-
...KANSAS CITY METROPOLITAN AREA...

CITY           SKY/WX    TMP DP  RH WIND       PRES   REMARKS
K.C. INTL      MOCLDY    71  68  90 NE5       30.14F
6HR MIN TEMP:  71; 6HR MAX TEMP:  75; 6HR PCP:  0.47;

K.C. DOWNTOWN  FAIR      72  69  90 NE6       30.13F
6HR MIN TEMP:  72; 6HR MAX TEMP:  78; 6HR PCP:  0.11;

LEES SUMMIT    FAIR      70  69  97 E6        30.15F
6HR MIN TEMP:  69; 6HR MAX TEMP:  77; 6HR PCP:  0.58;

OLATHE - IXD   FAIR      71  70  96 E3        30.15S
6HR MIN TEMP:  70; 6HR MAX TEMP:  78; 6HR PCP:  2.20;

OLATHE - OJC   FAIR      69  69 100 CALM      30.15S
6HR MIN TEMP:  69; 6HR MAX TEMP:  74; 6HR PCP:  2.22;

LAWRENCE       FAIR      70  70 100 SE5       30.14F

$$

MOZ001>008-011>017-020>025-030>033-038>040-044>046-053-054-301300-
...NORTHERN AND CENTRAL MISSOURI...

CITY           SKY/WX    TMP DP  RH WIND       PRES   REMARKS
ST. JOSEPH     FAIR      68  67  96 CALM      30.14F
6HR MIN TEMP:  68; 6HR MAX TEMP:  72; 6HR PCP:  0.09;

MOSBY          FAIR      70  70 100 CALM      30.13F
WHITEMAN AFB   MOCLDY    70  70 100 NE2       30.14F
6HR MIN TEMP:  70; 6HR MAX TEMP:  76;

CLINTON        MOCLDY    72  72 100 CALM      30.16S
SEDALIA        MOCLDY    73  71  93 N6        30.17R FOG
6HR MIN TEMP:  73; 6HR MAX TEMP:  76;

WARSAW         NOT AVBL
CHILLICOTHE      N/A     72  71  97 CALM      30.17F
6HR MIN TEMP:  71; 6HR MAX TEMP:  74; 6HR PCP:  0.46;

KIRKSVILLE     FAIR      70  67  90 N5        30.17S THUNDER
6HR MIN TEMP:  69; 6HR MAX TEMP:  71;


$$

MOZ041-047>049-056>058-063>065-088>090-097-301300-
...EASTERN AND SOUTHERN MISSOURI...

CITY           SKY/WX    TMP DP  RH WIND       PRES   REMARKS
ST. LOUIS INTL FAIR      77  72  84 CALM      30.14S
6HR MIN TEMP:  76; 6HR MAX TEMP:  81;

SPIRIT OF STL  FOG       72  72 100 CALM      30.13R VSB 1/2
COLUMBIA       FAIR      73  72  96 CALM      30.15S FOG
JEFFERSON CITY FOG       71  70  96 CALM      30.14R VSB 3/4
ROLLA          FAIR      69  68  96 CALM      30.15S FOG
OSAGE BEACH    FAIR      70  69  97 CALM      30.16R FOG
SPRINGFIELD    FAIR      72  68  87 CALM      30.15S
BRANSON        PTCLDY    68  68 100 CALM      30.16S FOG
JOPLIN         MOCLDY    71  69  93 CALM      30.15R
WEST PLAINS    FAIR      71  68  90 CALM      30.17R FOG

$$

IAZ060-094-KSZ022-034>040-054-083-096-NEZ052-066-093-301300-
...KANSAS...SOUTHEAST NEBRASKA AND IOWA...

CITY           SKY/WX    TMP DP  RH WIND       PRES   REMARKS
TOPEKA         FAIR      70  68  93 CALM      30.14F
6HR MIN TEMP:  69; 6HR MAX TEMP:  75;

MANHATTAN      FAIR      70  68  93 N3        30.16S
EMPORIA        CLOUDY    72  71  97 E3        30.17R FOG
CHANUTE        FAIR      73  70  90 NE5       30.14R
WICHITA        MOCLDY    74  71  91 NE6       30.15R
OMAHA          CLOUDY    69  66  90 CALM      30.19S
LINCOLN        LGT RAIN  69  68  96 E6        30.20S
FALLS CITY     MOCLDY    69  69 100 E6        30.15S
LAMONI         FAIR      68  68 100 N5        30.19R FOG
DES MOINES     CLOUDY    71  70  96 CALM      30.16F FOG

$$





USA.gov is the U.S. government's official web portal to all federal, state and local government web resources and services.